This demonstration page uses our WeatherBlox Daily Observations layout. Learn more.

Left ArrowRight Arrow

Hourly Observations for April 10, 2021

Temp ( °F °C ) Dew Point ( °F °C ) Humidity (%) Winds ( mph kmh ) Pressure ( in mb ) Visibility ( mi km ) Precip ( " mm )
12:43 am 00:43 Cloudy with Light Rain 42 5.6 40 4.4 92 92 NNW 18 30 29.93 1014 6 10 0.06 1.52
12:53 am 00:53 Cloudy with Light Rain 42 5.6 40 4.4 92 92 NNW 18 30 29.89 1012 8 13 0.07 1.78
1:53 am 01:53 Cloudy with Light Rain 43 6.1 40 4.4 89 89 NNW 18 30 29.89 1012 10 16 0.01 0.25
2:53 am 02:53 Cloudy 43 6.1 40 4.4 89 89 NNW 18 30 29.89 1012 10 16 0.01 0.25
3:53 am 03:53 Cloudy 42 5.6 39 3.9 89 89 NW 9 15 29.88 1012 10 16 0.00 0.00
4:53 am 04:53 Cloudy 41 5 37 2.8 86 86 WNW 15 24 29.88 1012 10 16 0.00 0.00
5:53 am 05:53 Mostly Clear 40 4.4 35 1.7 83 83 NNW 14 22 29.88 1012 10 16 0.00 0.00
6:53 am 06:53 Clear 39 3.9 33 0.6 79 79 NNW 13 20 29.89 1012 10 16 0.00 0.00
7:53 am 07:53 Sunny 38 3.3 32 0 79 79 NW 13 20 29.91 1013 10 16 0.00 0.00
8:53 am 08:53 Sunny 42 5.6 32 0 68 68 NNW 15 24 29.91 1013 10 16 0.00 0.00
9:53 am 09:53 Sunny 46 7.8 35 1.7 66 66 NNW 15 24 29.91 1013 10 16 0.00 0.00
10:53 am 10:53 Sunny 49 9.4 37 2.8 64 64 NNW 15 24 29.92 1013 10 16 0.00 0.00
11:53 am 11:53 Sunny 53 11.7 37 2.8 55 55 NNW 14 22 29.90 1013 10 16 0.00 0.00
12:53 pm 12:53 Sunny 55 12.8 32 0 42 42 NW 13 20 29.87 1012 10 16 0.00 0.00
1:53 pm 13:53 Sunny 56 13.3 30 -1.1 37 37 NW 14 22 29.85 1011 10 16 0.00 0.00
2:53 pm 14:53 Sunny 57 13.9 26 -3.3 30 30 NNW 14 22 29.83 1010 10 16 0.00 0.00
3:53 pm 15:53 Sunny 60 15.6 26 -3.3 27 27 NNW 13 20 29.79 1009 10 16 0.00 0.00
4:53 pm 16:53 Sunny 60 15.6 25 -3.9 26 26 NNW 9 15 29.76 1008 10 16 0.00 0.00
5:53 pm 17:53 Sunny 60 15.6 23 -5 24 24 NW 9 15 29.75 1007 10 16 0.00 0.00
6:53 pm 18:53 Sunny 59 15 23 -5 25 25 NW 6 9 29.73 1007 10 16 0.00 0.00
7:53 pm 19:53 Sunny 55 12.8 31 -0.6 40 40 Calm 29.72 1007 10 16 0.00 0.00
8:53 pm 20:53 Clear 52 11.1 27 -2.8 38 38 Calm 29.72 1006 10 16 0.00 0.00
9:53 pm 21:53 Clear 46 7.8 33 0.6 61 61 Calm 29.72 1006 10 16 0.00 0.00
10:53 pm 22:53 Clear 48 8.9 29 -1.7 48 48 SSE 3 6 29.69 1005 10 16 0.00 0.00
11:53 pm 23:53 Clear 45 7.2 30 -1.1 56 56 S 5 7 29.68 1005 10 16 0.00 0.00

Powered by AerisWeather